Baton Rouge, LA (70812)

3:03 AM CST on March 05, 2015 (GMT -0600)
KLABATON34 | Change Station
CLOSE
Current Station
Personal Weather Station
Location: Baton Rouge, LA
Elevation: 89 ft
Nearby Weather Stations
Active Advisory: Flood Warning Active Notice: Record Report

Elev 89 ft 30.51 °N, 91.06 °W | Updated 12 minutes ago

Light Rain
Light Rain
54.3 °F
Feels Like 54.3 °F
N
7.4
Wind Variable Wind from WNW

Today
High -- | Low -- °F
--% Chance of Precip.
Yesterday
High -- | Low -- °F
Precip. -- in
6:26 AM 6:05 PM
Full, 100% visible
Pressure 29.96 in
Visibility 10.0 miles
Clouds Overcast 600 ft
Dew Point 54 °F
Humidity 98%
Rainfall in
Snow Depth Not available.
UV 0 out of 12
Pollen 10.30 out of 12
Air Quality Not available.
Flu Activity Not available.
METAR KBTR 050853Z 34007G16KT 300V010 10SM -RA OVC006 09/08 A2996 RMK AO2 WSHFT 0742 RAB15 SLP145 P0000 60000 T00940083 53016

More Conditions Fewer Conditions

Pressure 29.96 in
Visibility 10.0 miles
Clouds Overcast 600 ft
Dew Point 54 °F
Humidity 98%
Rainfall in
Snow Depth Not available.
UV 0 out of 12
Pollen 10.30 out of 12
Air Quality Not available.
Flu Activity Not available.
METAR KBTR 050853Z 34007G16KT 300V010 10SM -RA OVC006 09/08 A2996 RMK AO2 WSHFT 0742 RAB15 SLP145 P0000 60000 T00940083 53016

More Conditions Fewer Conditions

10-Day Weather Forecast

Almanac

Astronomy

Mar. 05, 2015 Rise Set
Actual Time
Civil Twilight
Nautical Twilight
Astronomical Twilight
Moon
Length of Visible Light
Length of Day
Tomorrow will be .
, % of the Moon is Illuminated

Today's Extremes

State Highs State Lows

Community

WunderPhotos

Upload Photos

1,802,704 photos uploaded!

WunderBlogs® & News

Nearby

Air Quality

  Air Quality AQ Index Pollutant
Not available.

Snow Depth

Station Depth Elevation

Earthquake Activity

City Distance Mag. Time & Date
Minimum magnitude displayed is 2.5.

Coastal Water Temperatures

Place Temperature

Nearby Weather Stations

Flood Warning
Statement as of 9:17 PM CST on March 04, 2015

The Flood Warning continues for
the Amite river at Denham Springs.
* Until Thursday morning.
* At 8:00 PM Wednesday the stage was 29.5 feet.
* Minor flooding is occurring and minor flooding is forecast.
* Flood stage is 29.0 feet.
* Forecast... the river has already crested and is expected to fall
below flood stage by late tonight.
* Impact... at 29.0 feet... flooding will begin in the westernmost parts
of Denham Springs.


Lat... Lon 3050 9095 3049 9102 3044 9100 3045 9093